Location: Unspecified
(0.0000°N, 0.0000°E)
Time: 23:10:16
(UTC+00:00)

NUDT-PHONESAT - Visible Passes

Search period start: 11 August 2020 00:00
Search period end: 21 August 2020 00:00
Orbit: 484 x 502 km, 97.4° (Epoch: 11 August)

Date Brightness Start Highest point End Pass type
(mag) Time Alt. Az. Time Alt. Az. Time Alt. Az.
11 Aug ? 18:41:11 10° SSW 18:44:27 30° WSW 18:47:43 10° NW visible
14 Aug ? 19:11:21 10° WSW 19:12:28 11° WSW 19:13:34 10° W visible
15 Aug ? 05:26:34 10° ENE 05:28:09 12° ESE 05:29:45 10° SE visible
15 Aug ? 18:47:41 10° SSW 18:50:42 24° WSW 18:53:43 10° NW visible
16 Aug ? 18:25:19 10° S 18:28:56 57° W 18:32:31 10° NNW visible
19 Aug ? 05:32:07 10° ENE 05:34:21 16° ESE 05:36:35 10° SE visible
19 Aug ? 18:54:12 10° SSW 18:56:54 20° WSW 18:59:35 10° NW visible
20 Aug ? 18:31:36 10° S 18:35:07 44° W 18:38:35 10° NNW visible
